Weather in Verkhovye

Russia / Smolensk Oblast     54°54′41″N   31°44′57″E
temp.,
°C
wind,
m/s
gust,
m/s
humid.,
%
clouds,
%
prec.,
mm/h
press.,
hPa
HPBL,
m
5 march, fri
fri500:00−4nw39890 0.0 1007341
03:00−5nw389414 0.0 1009394
06:00−5nw369197 0.1 1010407
09:00−6wnw259094 0.1 1011313
12:00−2w347850 0.0 1012702
15:00−1w466275 0.8 10121363
18:00−3wnw497034 0.3 1014566
21:00−5nw389568 0.4 1016425
6 march, sat
sat600:00−6nw3785100 0.3 1018385
03:00−7nw258992 0.3 1019153
06:00−8wnw24890 0.0 1019116
09:00−7wnw25800 0.0 1020242
12:00−3wnw46610 0.0 10201233
15:00−3wnw476344 0.1 10191414
18:00−4w387261 0.1 1018385
21:00−6sw4127346 0.1 1016411
7 march, sun
sun700:00−4sw61370100 0.0 1013782
03:00−4sw71577100 0.0 1009869
06:00−4sw91692100 0.5 10021038
09:00−2wsw102089100 2.1 9971410
12:00−4wnw91660100 1.8 9991722
15:00−2w8145151 1.8 10012365
18:00−4wsw5156653 0.0 10001498
21:00−5wsw7166966 0.0 9971197
8 march, mon
mon800:00−6wnw9157199 0.9 9981383
03:00−8wnw8157582 1.0 10021268
06:00−9nw5128299 0.0 1004851
09:00−9nw5108499 0.0 1006897
12:00−6wnw6977100 0.1 10071076
15:00−5nw6978100 0.3 10091197
18:00−6nnw4980100 0.1 1011945
21:00−9nnw4985100 0.1 1014658
9 march, tue
tue900:00−10nnw4986100 0.1 1016634
03:00−11nnw398995 0.1 1017502
06:00−12nnw399166 0.0 1019445
09:00−12nw378676 0.0 1021454
12:00−8w366744 0.0 1021586
15:00−4w6107170 0.0 10201079
18:00−4w5126992 0.0 1018769
21:00−5w5146989 0.0 1019631